sat.trackr.live / text

‹ back to catalog

IRIDIUM 135

NORAD 43070 · 2017-083A

PAYLOAD ACTIVE UNKNOWN

§ Identity

Operator
Country
US
Launch date
2017-12-23
Launch site
AFWTR
Launch vehicle
Mass (kg)
RCS (m²)

Purposes: comms

External: N2YO · Heavens-Above · Gunter

§ Orbital elements

Epoch: 2026-09-15T12:02:35.141568Z

Period
100.40 min
Inclination
86.3916°
Eccentricity
0.0002254
Mean motion
14.34217762 rev/d
Perigee alt
776.1 km
Apogee alt
779.3 km
Semi-major
7,155.8 km
B*
6.5304e-6
RAAN
284.2585°
Arg perigee
92.7391°
Mean anomaly
267.4063°
Rev number
45,709

§ Raw data

IRIDIUM 1351 43070U 17083A   26258.50179562  .00000038  00000+0  65304-5 0  99942 43070  86.3916 284.2585 0002254  92.7391 267.4063 14.34217762457097

JSON: /api/v1/satellites/43070 · /tle

For live sub-satellite position, see the globe view (requires WebGL).

§ Visibility from observer

Set your observer location to see the next 7 days of passes ≥ 10°. The values pass through the URL so the page stays shareable.

No JS? Fill the form by hand. The geolocation button needs JavaScript.